Total_Precipitation_Accumulation
1.84 2.21 2.54 2.97 3.40 3.92 4.61 5.18 5.54 5.48 5.24 4.85 4.46 4.16 3.67 3.33 3.02 2.69 2.48 2.23 1.97 1.87 2.07 1.88 1.98 2.00 1.93 1.76 1.73 1.81 1.81 1.59 1.87 2.07 1.66 1.26 1.06 0.95 0.82 0.81 0.86 0.79 0.84
1.78 2.10 2.60 2.89 3.21 3.67 4.16 4.55 4.50 4.17 4.02 3.96 3.83 3.55 3.54 3.39 3.17 2.94 2.68 2.27 2.05 1.88 1.72 1.79 1.71 1.71 1.77 1.58 1.48 1.62 1.62 1.40 1.64 1.76 1.70 1.27 1.07 0.90 0.63 0.67 0.69 0.77 0.95
1.40 1.71 2.26 2.56 2.71 3.07 3.37 3.42 3.29 3.07 3.06 3.10 3.02 3.06 3.27 3.30 3.20 3.01 2.73 2.43 2.26 2.12 1.95 1.79 1.63 1.57 1.48 1.46 1.42 1.49 1.53 1.44 1.38 1.42 1.58 1.28 1.00 0.84 0.60 0.54 0.60 0.81 1.00
1.10 1.38 1.72 1.90 2.13 2.29 2.44 2.48 2.52 2.48 2.46 2.50 2.42 2.30 2.34 2.48 2.64 2.85 2.87 2.83 2.61 2.35 2.09 1.90 1.66 1.43 1.30 1.41 1.20 1.25 1.44 1.52 1.30 1.23 1.21 1.19 1.26 1.20 0.88 0.59 0.51 0.73 0.85
1.08 1.23 1.30 1.43 1.58 1.58 1.73 1.80 2.07 2.34 2.41 2.39 2.44 2.30 2.04 1.97 2.00 2.13 2.26 2.25 2.23 2.09 1.84 1.72 1.61 1.37 1.19 1.19 1.18 1.32 1.33 1.33 1.25 1.22 1.18 1.24 1.35 1.28 1.17 0.90 0.76 0.77 0.68
0.82 0.96 1.09 1.20 1.23 1.21 1.37 1.58 1.87 2.22 2.41 2.45 2.39 2.29 2.14 2.08 1.96 1.90 1.87 1.74 1.77 1.74 1.63 1.53 1.49 1.32 1.20 1.20 1.17 1.24 1.28 1.32 1.35 1.34 1.30 1.33 1.32 1.33 1.44 1.25 1.07 0.98 0.79
0.58 0.60 0.72 0.84 0.85 0.87 0.97 1.21 1.44 1.66 1.85 1.99 1.99 1.88 1.94 2.05 1.91 1.74 1.60 1.47 1.38 1.36 1.38 1.44 1.46 1.34 1.27 1.31 1.39 1.36 1.27 1.29 1.36 1.34 1.39 1.43 1.36 1.42 1.56 1.52 1.30 1.18 1.10
0.39 0.37 0.43 0.53 0.63 0.65 0.68 0.81 1.07 1.26 1.44 1.56 1.67 1.76 1.91 2.01 1.94 2.01 1.78 1.57 1.36 1.25 1.28 1.44 1.49 1.41 1.32 1.25 1.40 1.36 1.36 1.39 1.38 1.31 1.50 1.55 1.39 1.53 1.69 1.76 1.74 1.58 1.52
0.28 0.28 0.33 0.37 0.41 0.46 0.53 0.59 0.75 0.94 1.16 1.35 1.50 1.58 1.56 1.57 1.65 1.76 1.72 1.56 1.51 1.36 1.40 1.44 1.53 1.56 1.57 1.52 1.54 1.44 1.47 1.61 1.61 1.53 1.58 1.61 1.54 1.59 1.70 1.84 1.94 1.95 1.86
0.28 0.27 0.27 0.29 0.29 0.33 0.45 0.56 0.63 0.77 1.10 1.41 1.55 1.45 1.40 1.30 1.40 1.45 1.46 1.50 1.49 1.48 1.48 1.44 1.46 1.54 1.57 1.55 1.60 1.58 1.62 1.77 1.79 1.83 1.91 1.84 1.70 1.76 1.79 1.84 2.00 2.15 2.17
0.30 0.29 0.24 0.23 0.28 0.28 0.38 0.57 0.69 0.84 1.12 1.42 1.60 1.55 1.39 1.34 1.41 1.32 1.27 1.37 1.43 1.45 1.46 1.41 1.37 1.34 1.40 1.56 1.70 1.67 1.71 1.77 1.82 1.84 1.79 1.75 1.79 1.83 1.73 1.77 1.86 2.02 2.18
0.24 0.23 0.17 0.18 0.21 0.24 0.35 0.67 0.98 1.32 1.49 1.72 1.94 1.91 1.58 1.41 1.32 1.14 1.09 1.21 1.37 1.43 1.43 1.39 1.33 1.29 1.39 1.61 1.73 1.78 1.93 2.01 1.95 1.86 1.78 1.68 1.73 1.78 1.73 1.79 1.77 1.83 2.07
0.25 0.26 0.19 0.19 0.20 0.21 0.27 0.44 0.59 0.92 1.23 1.53 1.79 1.73 1.46 1.28 1.20 1.13 1.12 1.21 1.34 1.39 1.41 1.42 1.45 1.54 1.65 1.81 1.89 1.94 2.08 2.07 1.97 1.94 1.82 1.71 1.72 1.70 1.77 1.84 1.81 1.77 1.82
0.32 0.28 0.26 0.24 0.23 0.25 0.25 0.36 0.45 0.53 0.72 1.09 1.35 1.36 1.23 1.15 1.11 1.14 1.15 1.15 1.17 1.23 1.31 1.50 1.73 1.87 1.95 1.99 2.04 2.05 2.02 1.98 1.84 1.72 1.62 1.61 1.69 1.74 1.73 1.66 1.65 1.68 1.78
0.31 0.25 0.26 0.35 0.38 0.41 0.38 0.39 0.43 0.47 0.63 1.00 1.19 1.18 1.13 1.09 1.04 1.01 1.07 1.14 1.21 1.27 1.45 1.62 1.75 1.76 1.79 1.85 1.97 1.98 1.92 1.84 1.71 1.57 1.36 1.30 1.50 1.62 1.64 1.52 1.58 1.63 1.68
0.34 0.29 0.27 0.36 0.42 0.45 0.46 0.45 0.46 0.49 0.61 0.88 1.08 1.09 1.03 0.98 0.91 0.94 1.06 1.23 1.33 1.45 1.60 1.64 1.62 1.56 1.32 1.38 1.50 1.57 1.60 1.59 1.53 1.40 1.30 1.26 1.29 1.29 1.27 1.25 1.26 1.33 1.43
0.36 0.29 0.30 0.40 0.53 0.51 0.53 0.56 0.52 0.51 0.64 0.86 1.02 1.09 1.06 1.08 1.04 1.01 1.18 1.38 1.51 1.59 1.66 1.65 1.58 1.49 1.45 1.34 1.22 1.20 1.26 1.36 1.37 1.37 1.39 1.19 1.07 1.18 1.17 1.22 1.16 1.10 1.14
0.44 0.42 0.39 0.44 0.54 0.53 0.56 0.60 0.58 0.61 0.73 0.90 1.07 1.14 1.10 1.16 1.24 1.26 1.35 1.57 1.75 1.80 1.79 1.77 1.71 1.68 1.62 1.50 1.29 1.19 1.15 1.31 1.37 1.37 1.40 1.38 1.32 1.29 1.35 1.36 1.29 1.17 1.13
0.53 0.57 0.60 0.57 0.59 0.61 0.64 0.65 0.68 0.74 0.86 0.93 1.06 1.17 1.24 1.36 1.41 1.45 1.62 1.81 1.93 1.91 1.86 1.88 1.86 1.84 1.84 1.67 1.36 1.22 1.23 1.42 1.46 1.47 1.46 1.44 1.39 1.38 1.25 1.22 1.25 1.25 1.22
0.57 0.59 0.67 0.70 0.72 0.72 0.76 0.81 0.87 1.00 1.15 1.23 1.29 1.47 1.67 1.85 1.94 1.98 2.04 2.07 2.12 2.01 1.96 1.91 1.89 1.84 1.85 1.78 1.36 1.17 1.21 1.42 1.49 1.56 1.53 1.42 1.29 1.24 1.11 1.10 1.24 1.23 1.20
0.53 0.59 0.63 0.71 0.74 0.77 0.91 1.07 1.13 1.24 1.37 1.49 1.56 1.77 2.09 2.27 2.24 2.23 2.19 2.14 2.15 2.15 2.12 2.04 2.01 1.98 1.92 1.86 1.46 1.29 1.33 1.50 1.60 1.59 1.55 1.49 1.35 1.15 1.08 1.02 1.06 1.10 1.09
0.51 0.57 0.61 0.66 0.76 0.88 1.09 1.34 1.42 1.40 1.48 1.67 1.87 2.09 2.33 2.30 2.20 2.35 2.29 2.27 2.33 2.31 2.21 2.16 2.09 2.09 2.04 1.89 1.60 1.37 1.43 1.58 1.70 1.76 1.71 1.61 1.39 1.15 1.05 0.96 0.93 0.88 0.83
0.52 0.57 0.63 0.73 0.82 1.00 1.32 1.58 1.64 1.68 1.71 1.83 2.00 2.11 2.22 2.40 2.54 2.59 2.51 2.42 2.38 2.34 2.19 2.11 1.99 1.93 1.99 2.00 1.58 1.33 1.39 1.48 1.53 1.70 1.71 1.44 1.21 1.06 0.91 0.87 0.85 0.76 0.71
0.54 0.60 0.68 0.82 1.00 1.16 1.44 1.58 1.62 1.64 1.67 1.69 1.71 1.84 2.02 2.18 2.27 2.49 2.56 2.48 2.34 2.28 2.24 2.12 1.99 1.92 1.95 1.96 1.63 1.32 1.30 1.36 1.36 1.44 1.50 1.36 1.18 1.05 0.94 0.88 0.84 0.79 0.80
0.56 0.65 0.74 0.85 0.97 1.13 1.31 1.35 1.46 1.55 1.65 1.63 1.59 1.61 1.66 1.78 1.88 2.00 2.13 2.14 2.16 1.99 1.89 1.77 1.71 1.71 1.77 1.73 1.49 1.31 1.31 1.43 1.48 1.44 1.46 1.46 1.33 1.20 1.09 1.06 1.09 1.09 1.04
0.55 0.65 0.76 0.87 0.96 1.09 1.28 1.34 1.43 1.52 1.58 1.56 1.50 1.52 1.54 1.62 1.70 1.74 1.71 1.56 1.50 1.35 1.22 1.18 1.13 1.15 1.21 1.31 1.16 1.04 1.14 1.29 1.35 1.28 1.31 1.42 1.40 1.32 1.24 1.18 1.18 1.16 1.11